This is the latest recevied weather packets stored in our database for station/object N8SDR. If no packets are shown the sender has not sent any weather packets the latest 10 day(s).
| Time | Temp. | Humidity | Pressure | Rain* | Wind** | Luminosity | Snow |
|---|---|---|---|---|---|---|---|
| 1777893840 | 11.67° C | 74% | 1005.9 hPa | 0 mm | - | 30 W/m² | - |
| 1777893536 | 11.67° C | 75% | 1006 hPa | 0 mm | - | 28 W/m² | - |
| 1777893233 | 11.67° C | 75% | 1005.7 hPa | 0 mm | - | 21 W/m² | - |
| 1777892929 | 11.11° C | 76% | 1006 hPa | 0 mm | - | 18 W/m² | - |
| 1777892626 | 11.11° C | 76% | 1005.7 hPa | 0 mm | - | 14 W/m² | - |
| 1777892322 | 11.11° C | 76% | 1005.9 hPa | 0 mm | - | 13 W/m² | - |
| 1777892018 | 10.56° C | 77% | 1005.8 hPa | 0 mm | - | 16 W/m² | - |
| 1777891716 | 10.56° C | 77% | 1005.9 hPa | 0 mm | - | 12 W/m² | - |
| 1777891412 | 10.56° C | 77% | 1005.7 hPa | 0 mm | - | 5 W/m² | - |
| 1777891107 | 10.56° C | 77% | 1005.8 hPa | 0 mm | - | 3 W/m² | - |
| 1777890802 | 10.56° C | 77% | 1005.8 hPa | 0 mm | - | 1 W/m² | - |
| 1777890499 | 10.56° C | 77% | 1005.9 hPa | 0 mm | - | 0 W/m² | - |
| 1777890195 | 10° C | 77% | 1005.8 hPa | 0 mm | - | 0 W/m² | - |
| 1777889891 | 10° C | 77% | 1005.9 hPa | 0 mm | - | 0 W/m² | - |
| 1777889589 | 10° C | 77% | 1005.9 hPa | 0 mm | - | 0 W/m² | - |
| 1777889286 | 10° C | 77% | 1006 hPa | 0 mm | - | 0 W/m² | - |
| 1777888983 | 10° C | 77% | 1005.9 hPa | 0 mm | - | 0 W/m² | - |
| 1777888681 | 10° C | 77% | 1006 hPa | 0 mm | - | 0 W/m² | - |
| 1777888376 | 10° C | 78% | 1006.2 hPa | 0 mm | - | 0 W/m² | - |
| 1777888073 | 10° C | 77% | 1006.2 hPa | 0 mm | - | 0 W/m² | - |
| 1777887770 | 10° C | 77% | 1006.5 hPa | 0 mm | - | 0 W/m² | - |
| 1777887467 | 10° C | 77% | 1006.4 hPa | 0 mm | - | 0 W/m² | - |
| 1777887162 | 10° C | 76% | 1006.4 hPa | 0 mm | - | 0 W/m² | - |
| 1777886859 | 10.56° C | 75% | 1006.4 hPa | 0 mm | - | 0 W/m² | - |
| 1777886554 | 10.56° C | 74% | 1006.2 hPa | 0 mm | - | 0 W/m² | - |
* Rain latest hour (hover to see other rain measurements)
** Current wind speed in m/s (hover to see current wind gust speed)